[[{"header":{"parameterUnit":"m.s-1","parameterCategory":1,"la1":30.2991,"la2":30.254,"lo1":-89.0895,"lo2":-89.0444,"dy":0.0017,"dx":0.0017,"nx":28,"ny":28,"refTime":"2023-10-19T09:00:00:Z","depth":0,"parameterNumber":2,"parameterNumberName":"U-component_of_WINDS"},"data":[0,0,0,0,0,0,0,0,0,0,0,0,0,0,0,0,0,0,0,0,0,0,0,0,0,0,0,0,0,0,0,0,0,0,0,0,0,0,0,0,0,0,0,0,0,0,0,0,0,0,0,0,0,0,0,0,0,0,4.3224,4.3225,0,4.33,4.33,4.3301,4.3193,4.3189,4.3185,4.3181,4.3264,4.327,4.3275,0,0,0,0,0,0,0,0,0,0,0,0,0,4.2991,4.2996,4.3224,4.3225,4.3226,4.3299,4.33,4.3302,4.3193,4.3189,4.3184,4.318,4.3262,4.3269,4.3276,0,0,0,0,0,0,0,0,0,0,0,0,0,4.3082,4.2998,4.3224,4.3181,4.3177,4.3299,4.3301,4.3302,4.3194,4.3189,4.3183,4.3177,4.326,4.3268,4.3277,4.3446,0,0,4.3303,4.3307,0,0,0,0,0,0,0,0,4.3077,4.3091,4.3186,4.3184,4.318,4.3231,4.3249,4.335,4.3196,4.3188,4.3181,4.3175,4.3258,4.3266,4.3293,4.345,4.3453,4.3304,4.3309,4.3313,4.3316,0,0,0,0,0,0,0,4.3071,4.3087,4.3254,4.3188,4.3184,4.3159,4.3166,4.3267,4.3255,4.3188,4.3181,4.3191,4.3255,4.3285,4.3295,4.3455,4.3304,4.3312,4.3317,4.332,4.3755,4.3761,0,0,0,0,0,0,4.3069,4.3083,4.3251,4.3256,4.3113,4.3168,4.3175,4.3221,4.3253,4.3253,4.3196,4.3185,4.3273,4.3285,4.3297,4.3498,4.3313,4.3321,4.3326,4.3749,4.3757,4.3764,0,0,0,0,0,0,4.3065,4.3085,4.3248,4.3167,4.3186,4.3178,4.323,4.3225,4.3255,4.3259,4.3256,4.3228,4.3269,4.3285,4.341,4.3499,4.3325,4.3333,4.3742,4.3751,4.376,4.3901,0,0,0,0,0,0,4.3058,4.3084,4.3147,4.3169,4.3191,4.3359,4.3235,4.3231,4.3269,4.3257,4.3289,4.3288,4.3266,4.3397,4.3418,4.3508,4.334,4.3733,4.3746,4.3757,4.3889,4.3915,4.3937,0,0,0,0,0,4.3051,4.3185,4.3151,4.3172,4.3269,4.3364,4.3376,4.3346,4.3277,4.3341,4.3344,4.3287,4.3486,4.3411,4.3434,4.3528,4.3728,4.3742,4.3756,4.3878,4.3909,4.3936,0,0,0,0,0,0,4.3175,4.3187,4.3149,4.3294,4.3329,4.3345,4.3425,4.338,4.3436,4.3423,4.3384,4.3392,4.3526,4.3539,4.3455,4.3694,4.3596,4.3615,4.368,4.371,4.3734,4.3728,4.3347,0,0,0,0,0,4.3219,4.3293,4.33,4.3428,4.3447,4.3434,4.3474,4.3447,4.3482,4.3497,4.3508,4.3546,4.3616,4.3664,4.3729,4.389,4.3896,4.3966,4.399,4.401,4.4027,4.4115,4.4146,4.381,4.381,4.381,0,0,4.3311,4.3327,4.3376,4.3453,4.3477,4.3557,4.3446,4.3535,4.3595,4.3511,4.3629,4.3639,4.3679,4.3822,4.3886,4.3837,4.4121,4.4028,4.4043,4.405,4.4132,4.4164,4.4193,4.382,4.3818,4.3817,0,0,4.352,4.3539,4.3647,4.3673,4.3709,4.37,4.3726,4.375,4.3753,4.3871,4.381,4.3881,4.4003,4.4034,4.4066,4.4288,4.4239,4.431,4.4436,4.4522,4.4548,4.4571,4.4652,4.4681,4.4328,4.4328,4.4328,0,4.363,4.3746,4.3709,4.3802,4.3839,4.3765,4.3876,4.3903,4.3961,4.3988,4.3932,4.4085,4.4106,4.4257,4.4311,4.4339,4.4369,4.4307,4.4547,4.457,4.4591,4.4667,4.4698,4.4337,4.4336,4.4335,4.4334,0,4.3881,4.3962,4.4046,4.4101,4.4147,4.4249,4.423,4.4281,4.4251,4.4248,4.437,4.4393,4.4462,4.4496,4.4468,4.4644,4.4612,4.4553,4.4453,4.4632,4.4703,4.4732,4.4349,4.4346,4.4343,4.4341,0,0,4.417,4.4203,4.4235,4.426,4.4295,4.4358,4.4458,4.4524,4.4569,4.4612,4.4695,4.4801,4.4746,4.4782,4.4757,4.4833,4.5009,4.4763,4.4764,4.4809,4.5205,4.525,4.5284,4.4976,4.4981,4.4986,4.5202,0,4.4378,4.4548,4.4518,4.4684,4.476,4.4692,4.4779,4.4811,4.4811,4.4877,4.4878,4.4954,4.4875,4.4897,4.4968,4.4972,4.5088,4.4956,4.5055,4.5059,4.5048,4.5321,4.5369,4.5572,4.5229,4.5234,4.5237,0,4.4645,4.4695,4.4869,4.4893,4.4924,4.5002,4.5061,4.5124,4.516,4.5155,4.5196,4.5158,4.5259,4.5158,4.5298,4.5209,4.5248,4.5257,4.5264,4.5272,4.516,4.5339,4.5636,4.5667,4.5281,4.5277,4.5274,0,4.4839,4.4951,4.5069,4.5093,4.5124,4.5181,4.5197,4.5227,4.5269,4.5321,4.5348,4.5413,4.5448,4.55,4.548,4.5408,4.5625,4.5522,4.5625,4.5626,4.5674,4.5672,4.5984,4.5699,4.5698,4.5697,4.5697,0,4.5076,4.5185,4.5157,4.523,4.5351,4.5317,4.5438,4.5446,4.5473,4.5548,4.5493,4.5565,4.5535,4.5605,4.5591,4.571,4.5726,4.5726,4.5721,4.5732,4.5732,4.5757,4.5743,4.5706,4.5704,4.5702,4.5701,0,4.5314,4.5299,4.5424,4.5443,4.5451,4.5539,4.5556,4.5626,4.5621,4.5717,4.5737,4.5732,4.5812,4.5798,4.5887,4.5877,4.6026,4.6004,4.6014,4.6009,4.6114,4.6104,4.6453,4.6498,4.6183,4.6186,4.6189,0,4.5466,4.5548,4.5576,4.5622,4.5641,4.5715,4.5758,4.5728,4.5775,4.5823,4.5887,4.5962,4.602,4.6152,4.6157,4.6225,4.6204,4.6322,4.6214,4.6222,4.6207,4.6203,4.6212,4.6344,4.6347,4.635,4.6352,0,4.5739,4.5728,4.579,4.5851,4.5903,4.595,4.5991,4.6032,4.6006,4.6062,4.6143,4.6188,4.6278,4.6354,4.6418,4.6436,4.6392,4.6386,4.6414,4.6426,4.6429,4.6429,4.6073,4.6378,4.6376,4.6374,4.6372,4.6371,4.5939,4.6009,4.604,4.6112,4.614,4.6181,4.6247,4.6251,4.6317,4.6387,4.6366,4.6458,4.6494,4.6574,4.66,4.6673,4.6629,4.6669,4.6679,4.669,4.6703,4.6416,4.6684,4.6683,4.6683,4.6682,4.6681,0,4.6209,4.6226,4.6292,4.6352,4.6409,4.636,4.6404,4.6456,4.6537,4.6573,4.6631,4.6725,4.6798,4.6809,4.6879,4.6936,4.6917,4.6955,4.6951,4.6957,4.6737,4.6707,4.6969,4.6969,4.6969,4.6969,4.6969,4.6969,4.6357,4.6473,4.6466,4.6597,4.6613,4.6701,4.6731,4.6769,4.6797,4.6904,4.6964,4.697,4.6997,4.7069,4.7135,4.7136,4.7165,4.7212,4.7206,4.7001,4.6972,4.6945,4.6916,4.7218,4.7218,4.7419,4.7421,4.7422]},{"header":{"parameterUnit":"m.s-1","parameterCategory":1,"la1":30.2991,"la2":30.254,"lo1":-89.0895,"lo2":-89.0444,"dy":0.0017,"dx":0.0017,"nx":28,"ny":28,"refTime":"2023-10-19T09:00:00:Z","depth":0,"parameterNumber":3,"parameterNumberName":"V-component_of_WINDS"},"data":[0,0,0,0,0,0,0,0,0,0,0,0,0,0,0,0,0,0,0,0,0,0,0,0,0,0,0,0,0,0,0,0,0,0,0,0,0,0,0,0,0,0,0,0,0,0,0,0,0,0,0,0,0,0,0,0,0,0,0.3981,0.3981,0,0.4049,0.4049,0.405,0.4035,0.4034,0.4032,0.4031,0.4102,0.4105,0.4108,0,0,0,0,0,0,0,0,0,0,0,0,0,0.3839,0.3841,0.3981,0.3981,0.3982,0.4048,0.4049,0.405,0.4035,0.4034,0.4032,0.4031,0.4101,0.4105,0.4108,0,0,0,0,0,0,0,0,0,0,0,0,0,0.3903,0.3842,0.398,0.3983,0.3984,0.4048,0.4049,0.4051,0.4036,0.4034,0.4032,0.403,0.41,0.4104,0.4109,0.4176,0,0,0.4123,0.4125,0,0,0,0,0,0,0,0,0.3899,0.3908,0.3981,0.3983,0.3984,0.4031,0.4025,0.4093,0.4036,0.4016,0.4031,0.4029,0.408,0.4086,0.4103,0.4179,0.4182,0.4123,0.4126,0.4128,0.4129,0,0,0,0,0,0,0,0.3895,0.3905,0.4008,0.3983,0.3984,0.3981,0.3988,0.4038,0.4058,0.4017,0.4016,0.4025,0.408,0.4099,0.4105,0.4183,0.4123,0.4127,0.413,0.4132,0.4318,0.432,0,0,0,0,0,0,0.3889,0.3902,0.4005,0.401,0.3936,0.3985,0.3993,0.4018,0.4057,0.4062,0.4026,0.4024,0.4092,0.4099,0.4107,0.4189,0.4128,0.4132,0.4135,0.4316,0.4318,0.4321,0,0,0,0,0,0,0.3886,0.3899,0.4003,0.3955,0.3968,0.3989,0.4018,0.402,0.4039,0.4064,0.4068,0.4041,0.4091,0.4101,0.4159,0.4191,0.4135,0.4139,0.4313,0.4317,0.432,0.4352,0,0,0,0,0,0,0.3882,0.3898,0.3923,0.3956,0.3971,0.4053,0.402,0.4023,0.4047,0.4044,0.4079,0.4083,0.409,0.4152,0.4164,0.4196,0.4142,0.431,0.4315,0.4319,0.4348,0.4356,0.4362,0,0,0,0,0,0.3877,0.393,0.3925,0.3937,0.4003,0.4055,0.4063,0.407,0.4049,0.4075,0.4091,0.4082,0.4185,0.4158,0.4171,0.4205,0.4308,0.4314,0.4318,0.4345,0.4354,0.4362,0,0,0,0,0,0,0.3901,0.3934,0.3929,0.3993,0.4021,0.4052,0.4085,0.408,0.4114,0.411,0.4117,0.4125,0.4184,0.4201,0.417,0.4272,0.4244,0.4252,0.426,0.4269,0.4276,0.4271,0.4146,0,0,0,0,0,0.3913,0.3952,0.3979,0.4034,0.4048,0.4064,0.4087,0.4089,0.4119,0.4131,0.4151,0.418,0.4219,0.4245,0.4282,0.435,0.4358,0.438,0.4387,0.4393,0.44,0.4437,0.4447,0.4337,0.4337,0.4337,0,0,0.394,0.3963,0.3987,0.4039,0.4061,0.4101,0.4074,0.4118,0.4148,0.4138,0.4194,0.421,0.4243,0.4306,0.4335,0.4321,0.4432,0.4399,0.4404,0.4407,0.4443,0.4453,0.4463,0.434,0.4339,0.4339,0,0,0.4009,0.403,0.4078,0.41,0.4134,0.4144,0.4156,0.4188,0.4198,0.4254,0.4247,0.4283,0.435,0.4374,0.4394,0.4472,0.4465,0.4484,0.4522,0.4558,0.4567,0.4575,0.4603,0.4613,0.4491,0.4491,0.4491,0,0.4038,0.4098,0.4103,0.4148,0.4171,0.4163,0.4211,0.4233,0.4277,0.4293,0.4277,0.4361,0.4383,0.4452,0.4471,0.4488,0.4501,0.4481,0.4565,0.4573,0.458,0.4607,0.4618,0.4493,0.4493,0.4493,0.4492,0,0.4133,0.4174,0.4209,0.4251,0.4278,0.4325,0.4337,0.4364,0.4364,0.4376,0.4434,0.4459,0.4502,0.4518,0.4519,0.4587,0.4578,0.4563,0.4535,0.4593,0.4618,0.4629,0.4496,0.4495,0.4495,0.4494,0,0,0.4219,0.4263,0.4276,0.4295,0.4331,0.4364,0.441,0.4451,0.4474,0.4504,0.4544,0.46,0.4587,0.4611,0.4614,0.4646,0.4706,0.4628,0.4629,0.4642,0.4784,0.4794,0.4806,0.4702,0.4703,0.4705,0.4781,0,0.4291,0.4372,0.4378,0.4451,0.449,0.4483,0.4523,0.4549,0.4562,0.4597,0.4611,0.4651,0.4631,0.4645,0.4676,0.4692,0.4735,0.4687,0.4738,0.474,0.4731,0.4819,0.4831,0.4901,0.4791,0.4793,0.4794,0,0.4387,0.442,0.4497,0.4528,0.4544,0.458,0.4619,0.4652,0.4682,0.4689,0.4716,0.4714,0.4762,0.4731,0.4797,0.4764,0.4786,0.4797,0.48,0.4805,0.4771,0.4828,0.4924,0.4935,0.4809,0.4808,0.4807,0,0.4443,0.4506,0.4561,0.4577,0.4615,0.464,0.4657,0.4685,0.4709,0.4743,0.4759,0.4797,0.4818,0.4848,0.4858,0.4834,0.4923,0.4893,0.4931,0.4931,0.495,0.4949,0.5052,0.4963,0.4963,0.4963,0.4963,0,0.4523,0.4571,0.4586,0.462,0.4673,0.4679,0.4732,0.4747,0.4772,0.4809,0.4804,0.4839,0.4848,0.4885,0.4892,0.4946,0.4955,0.4963,0.4964,0.4963,0.4962,0.4978,0.4973,0.4966,0.4965,0.4964,0.4964,0,0.4594,0.4607,0.4665,0.4696,0.4704,0.4742,0.4768,0.4801,0.4812,0.4858,0.487,0.4888,0.4931,0.4943,0.4994,0.4999,0.5062,0.5059,0.5052,0.5052,0.5089,0.5085,0.5205,0.5221,0.5122,0.5123,0.5124,0,0.4645,0.4682,0.4716,0.474,0.4757,0.4796,0.4821,0.4828,0.4854,0.4891,0.4919,0.4961,0.4995,0.5063,0.5082,0.5121,0.5119,0.5158,0.5125,0.5123,0.512,0.5118,0.5121,0.5165,0.5166,0.5166,0.5167,0,0.4734,0.4739,0.4774,0.4812,0.4842,0.4872,0.4901,0.4921,0.4933,0.4962,0.5005,0.5032,0.5084,0.5125,0.5165,0.5182,0.5177,0.5177,0.5188,0.5188,0.5182,0.5186,0.5069,0.5175,0.5174,0.5173,0.5173,0.5173,0.4797,0.4829,0.4858,0.4898,0.492,0.4948,0.498,0.4995,0.5031,0.5074,0.5076,0.5124,0.5153,0.5205,0.5225,0.5262,0.525,0.5266,0.527,0.5274,0.5277,0.5176,0.5269,0.5269,0.5269,0.5268,0.5268,0,0.4886,0.4904,0.4941,0.4982,0.5013,0.5005,0.5037,0.5064,0.5105,0.5133,0.5166,0.5216,0.5256,0.5277,0.5318,0.5343,0.5342,0.5354,0.5352,0.5356,0.5285,0.5272,0.5354,0.5354,0.5354,0.5354,0.5354,0.5354,0.4936,0.499,0.4998,0.5063,0.5081,0.5126,0.5145,0.5171,0.5193,0.5248,0.5282,0.5295,0.5321,0.5363,0.5399,0.5405,0.542,0.5433,0.5437,0.537,0.5361,0.5353,0.5341,0.5436,0.5436,0.5506,0.5506,0.5507]}]]